Location: Dumpton Point
(51.3500°N, 1.4433°E)
Time: 02:45:53
(UTC+00:00)

IGS 5A - Pass Details

Date: 09 April 2020
Orbit: 585 x 587 km, 97.6° (Epoch: 01 June)

Event Time Altitude Azimuth Distance (km) Brightness Sun altitude
Exits shadow 20:20:46 26° 114° (ESE) 1,173 4.4 -14.9°
Maximum altitude 20:22:26 37° 68° (ENE) 916 4.2 -15.1°
Drops below altitude 10° 20:26:17 10° 0° (N) 1,923 6.6 -15.6°
Sets 20:28:34 0° 353° (N) 2,828 7.6 -15.9°
